South Paris, Maine, United States (04281)
Lat: 44.22N, Lon: 70.51W
Wx Zone: MEZ012
Local Info
Past Weather Observations for Saturday, October 18, 2014

NOTE: This archive is for the closest National Weather Service station to South Paris. Information may differ from the station used for current weather conditions.

Click here for Long-term Archive

Time Weather Temperature Dewpoint Humidity Pressure Winds Precip Visibility
23:55
Mostly Cloudy
46°F / 8°C 43°F / 6°C 87% 29.53 in
(1000 mb)
Calm - 10SM
23:35
Mostly Cloudy
48°F / 9°C 46°F / 8°C 94% 29.53 in
(1000 mb)
Calm - 10SM
23:15
Partly Cloudy
46°F / 8°C 45°F / 7°C 93% 29.53 in
(1000 mb)
Calm - 5SM
22:55
Clear
46°F / 8°C 43°F / 6°C 87% 29.53 in
(1000 mb)
Calm - 1 1/4SM
22:35
Clear
48°F / 9°C 43°F / 6°C 82% 29.53 in
(1000 mb)
SE 3.5 mph
(SE 6 kph)
- 1 1/2SM
22:15
Clear
52°F / 11°C 46°F / 8°C 82% 29.53 in
(1000 mb)
SE 3.5 mph
(SE 6 kph)
- 10SM
21:55
Clear
52°F / 11°C 48°F / 9°C 88% 29.5 in
(999 mb)
Calm - 10SM
21:35
Clear
52°F / 11°C 46°F / 8°C 82% 29.5 in
(999 mb)
Calm - 10SM
21:15
Clear
48°F / 9°C 46°F / 8°C 94% 29.5 in
(999 mb)
Calm - 2 1/2SM
20:55
Obscured
50°F / 10°C 46°F / 8°C 88% 29.5 in
(999 mb)
Calm - 3/4SM
20:35
Clear
52°F / 11°C 48°F / 9°C 88% 29.5 in
(999 mb)
Calm - 10SM
20:15
Clear
52°F / 11°C 48°F / 9°C 88% 29.5 in
(999 mb)
Calm - 3SM
19:55
Clear
52°F / 11°C 48°F / 9°C 88% 29.5 in
(999 mb)
S 3.5 mph
(S 6 kph)
- 10SM
19:35
Clear
54°F / 12°C 48°F / 9°C 82% 29.5 in
(999 mb)
Calm - 10SM
19:15
Partly Cloudy
54°F / 12°C 48°F / 9°C 82% 29.5 in
(999 mb)
Calm - 10SM
18:55
Partly Cloudy
54°F / 12°C 50°F / 10°C 88% 29.5 in
(999 mb)
Calm - 9SM
18:35
Clear
54°F / 12°C 50°F / 10°C 88% 29.5 in
(999 mb)
Calm - 10SM
18:15
Clear
54°F / 12°C 48°F / 9°C 82% 29.5 in
(999 mb)
Calm - 10SM
17:55
Partly Cloudy
55°F / 13°C 52°F / 11°C 88% 29.5 in
(999 mb)
Calm - 10SM
17:35
Overcast
55°F / 13°C 52°F / 11°C 88% 29.5 in
(999 mb)
S 3.5 mph
(S 6 kph)
- 10SM
17:15
Overcast
55°F / 13°C 52°F / 11°C 88% 29.5 in
(999 mb)
S 5.8 mph
(S 9 kph)
- 10SM
16:55
Overcast
57°F / 14°C 52°F / 11°C 82% 29.47 in
(998 mb)
S 8.1 mph
(S 13 kph)
- 10SM
16:35
Overcast
Thunder Storms
57°F / 14°C 54°F / 12°C 88% 29.47 in
(998 mb)
S 6.9 mph
(S 11 kph)
- 10SM
16:15
Overcast
Thunder Storms
59°F / 15°C 52°F / 11°C 77% 29.47 in
(998 mb)
S 6.9 mph
(S 11 kph)
- 9SM
15:55
Mostly Cloudy
63°F / 17°C 54°F / 12°C 73% 29.47 in
(998 mb)
SSW 11.5 mph
(SSW 19 kph)
- 9SM
15:35
Overcast
63°F / 17°C 54°F / 12°C 73% 29.47 in
(998 mb)
SW 4.6 mph
(SW 7 kph)
- 10SM
15:15
Overcast
63°F / 17°C 54°F / 12°C 73% 29.47 in
(998 mb)
SW 4.6 mph
(SW 7 kph)
- 10SM
14:55
Overcast
64°F / 18°C 54°F / 12°C 68% 29.47 in
(998 mb)
SW 8.1 mph
(SW 13 kph)
- 10SM
14:35
Overcast
64°F / 18°C 54°F / 12°C 68% 29.5 in
(999 mb)
SSE 9.2 mph
(SSE 15 kph)
- 10SM
14:15
Partly Cloudy
64°F / 18°C 54°F / 12°C 68% 29.5 in
(999 mb)
SW 9.2 mph
(SW 15 kph)
- 10SM
13:55
Mostly Cloudy
64°F / 18°C 54°F / 12°C 68% 29.5 in
(999 mb)
SSW 9.2 mph
(SSW 15 kph)
- 10SM
13:35
Overcast
64°F / 18°C 54°F / 12°C 68% 29.5 in
(999 mb)
SW 8.1 mph
(SW 13 kph)
- 10SM
13:15
Overcast
63°F / 17°C 54°F / 12°C 73% 29.5 in
(999 mb)
SSW 6.9 mph
(SSW 11 kph)
- 10SM
12:55
Overcast
63°F / 17°C 54°F / 12°C 73% 29.5 in
(999 mb)
SW 11.5 mph
(SW 19 kph)
- 10SM
12:35
Overcast
63°F / 17°C 54°F / 12°C 73% 29.53 in
(1000 mb)
SSE 13.8 mph
(SSE 22 kph)
- 10SM
12:15
Mostly Cloudy
64°F / 18°C 55°F / 13°C 73% 29.53 in
(1000 mb)
SW 12.7 mph
(SW 20 kph)
- 10SM
11:55
Partly Cloudy
66°F / 19°C 54°F / 12°C 64% 29.53 in
(1000 mb)
SW 11.5 mph
(SW 19 kph)
- 10SM
11:35
Clear
66°F / 19°C 54°F / 12°C 64% 29.53 in
(1000 mb)
S 13.8 mph
(S 22 kph)
- 10SM
11:15
Partly Cloudy
66°F / 19°C 55°F / 13°C 68% 29.53 in
(1000 mb)
S 9.2 mph
(S 15 kph)
- 10SM
10:55
Mostly Cloudy
66°F / 19°C 55°F / 13°C 68% 29.53 in
(1000 mb)
SSE 10.4 mph
(SSE 17 kph)
- 10SM
10:35
Mostly Cloudy
64°F / 18°C 55°F / 13°C 73% 29.53 in
(1000 mb)
SW 5.8 mph
(SW 9 kph)
- 9SM
10:15
Partly Cloudy
63°F / 17°C 55°F / 13°C 77% 29.53 in
(1000 mb)
Calm - 10SM
09:55
Clear
63°F / 17°C 54°F / 12°C 73% 29.56 in
(1001 mb)
S 9.2 mph
(S 15 kph)
- 10SM
09:35
Partly Cloudy
61°F / 16°C 54°F / 12°C 77% 29.56 in
(1001 mb)
SSE 6.9 mph
(SSE 11 kph)
- 10SM
09:15
Mostly Cloudy
61°F / 16°C 54°F / 12°C 77% 29.56 in
(1001 mb)
SW 4.6 mph
(SW 7 kph)
- 10SM
08:55
Mostly Cloudy
57°F / 14°C 54°F / 12°C 88% 29.56 in
(1001 mb)
SW 3.5 mph
(SW 6 kph)
- 10SM
08:35
Overcast
57°F / 14°C 54°F / 12°C 88% 29.59 in
(1002 mb)
S 5.8 mph
(S 9 kph)
- 9SM
08:15
Overcast
55°F / 13°C 54°F / 12°C 94% 29.59 in
(1002 mb)
S 5.8 mph
(S 9 kph)
- 7SM
07:55
Overcast
55°F / 13°C 52°F / 11°C 88% 29.59 in
(1002 mb)
SSE 4.6 mph
(SSE 7 kph)
- 5SM
07:35
Overcast
55°F / 13°C 52°F / 11°C 88% 29.59 in
(1002 mb)
SSE 6.9 mph
(SSE 11 kph)
- 3SM
07:15
Overcast
55°F / 13°C 52°F / 11°C 88% 29.59 in
(1002 mb)
S 6.9 mph
(S 11 kph)
- 3SM
06:55
Overcast
54°F / 12°C 52°F / 11°C 94% 29.59 in
(1002 mb)
S 5.8 mph
(S 9 kph)
- 3SM
06:35
Overcast
54°F / 12°C 52°F / 11°C 94% 29.59 in
(1002 mb)
S 4.6 mph
(S 7 kph)
- 3SM
06:15
Overcast
54°F / 12°C 50°F / 10°C 88% 29.59 in
(1002 mb)
S 5.8 mph
(S 9 kph)
- 3SM
05:55
Mostly Cloudy
52°F / 11°C 48°F / 9°C 88% 29.59 in
(1002 mb)
S 6.9 mph
(S 11 kph)
- 5SM
05:35
Clear
52°F / 11°C 48°F / 9°C 88% 29.56 in
(1001 mb)
SSE 4.6 mph
(SSE 7 kph)
- 5SM
05:15
Mostly Cloudy
52°F / 11°C 46°F / 8°C 82% 29.59 in
(1002 mb)
Calm - 1SM
04:55
Mostly Cloudy
52°F / 11°C 48°F / 9°C 88% 29.59 in
(1002 mb)
S 3.5 mph
(S 6 kph)
- 7SM
04:35
Mostly Cloudy
54°F / 12°C 48°F / 9°C 82% 29.59 in
(1002 mb)
SSE 6.9 mph
(SSE 11 kph)
- 8SM
04:15
Partly Cloudy
54°F / 12°C 48°F / 9°C 82% 29.59 in
(1002 mb)
SSE 4.6 mph
(SSE 7 kph)
- 9SM
03:55
Clear
54°F / 12°C 48°F / 9°C 82% 29.59 in
(1002 mb)
SSE 5.8 mph
(SSE 9 kph)
- 10SM
03:35
Clear
54°F / 12°C 50°F / 10°C 88% 29.59 in
(1002 mb)
SSE 6.9 mph
(SSE 11 kph)
- 10SM
03:15
Clear
54°F / 12°C 48°F / 9°C 82% 29.59 in
(1002 mb)
SSE 4.6 mph
(SSE 7 kph)
- 10SM
02:55
Clear
54°F / 12°C 48°F / 9°C 82% 29.59 in
(1002 mb)
S 5.8 mph
(S 9 kph)
- 10SM
02:35
Clear
54°F / 12°C 48°F / 9°C 82% 29.59 in
(1002 mb)
Calm - 10SM
02:15
Clear
54°F / 12°C 48°F / 9°C 82% 29.59 in
(1002 mb)
SSE 6.9 mph
(SSE 11 kph)
- 10SM
01:55
Clear
54°F / 12°C 48°F / 9°C 82% 29.59 in
(1002 mb)
SSE 8.1 mph
(SSE 13 kph)
- 10SM
01:35
Clear
54°F / 12°C 48°F / 9°C 82% 29.59 in
(1002 mb)
SE 6.9 mph
(SE 11 kph)
- 10SM
01:15
Clear
54°F / 12°C 48°F / 9°C 82% 29.62 in
(1003 mb)
S 3.5 mph
(S 6 kph)
- 10SM
00:55
Clear
55°F / 13°C 48°F / 9°C 77% 29.62 in
(1003 mb)
SSE 6.9 mph
(SSE 11 kph)
- 10SM
00:35
Clear
55°F / 13°C 48°F / 9°C 77% 29.62 in
(1003 mb)
S 5.8 mph
(S 9 kph)
- 10SM
00:15
Clear
55°F / 13°C 50°F / 10°C 82% 29.62 in
(1003 mb)
SSE 4.6 mph
(SSE 7 kph)
- 10SM
Time Weather Temperature Dewpoint Humidity Pressure Winds Precip Visibility


Weather for websites

WeatherForYou.com, LLC is not responsible for any damages or problems caused by this service. Current weather conditions are obtained from the closest station including government and personal stations which may have varying degrees of accuracy. Weather forecasts are derived from the NOAA NDFD. Like all things, this site belongs to Jesus Christ... He just trusts me to maintain it. If you have any questions or comments email webmaster@weatherforyou.com

Copyright © 2014, WeatherForYou.com LLC. All rights reserved.